Flag for Poland Weather past 2 weeks in Lublin, Poland

Now
48 °F

Overcast.


Feels Like: 48 °F
Forecast: 44 / 49 °F
Wind: 2 mph from Southeast

Location: Lublin Radawiec

Current Time: Mar 27, 2015 at 4:45:08 AM

Latest Report: Mar 27, 2015 at 3:00 AM


Visibility: 6 mi

Pressure: 29.78 "Hg

Humidity: 80%

Dew point: 42 °F

Location of LublinLocation

Historic Weather in Lublin — Graph

°F

Lublin temperature yesterday

Maximum temperature yesterday: 65 °F (at 3:00 PM)
Minimum temperature yesterday: 46 °F (at 4:00 AM)
Average temperature yesterday: 54 °F

Past Weeks' High & Low Weather Summary

 TemperatureHumidityPressure
High65 °F (Mar 26, 3:00 PM)98% (Mar 13, 8:00 PM)30.76 "Hg (Mar 13, 8:00 PM)
Low22 °F (Mar 23, 1:00 AM)34% (Mar 18, 2:00 PM)29.77 "Hg (Mar 26, 5:00 PM)
Average41 °F70%30.26 "Hg
* Reported Mar 12 3:00 AM — Mar 27 3:00 AM, Lublin, Weather by CustomWeather, © 2015

Note: Actual official high and low records may vary slightly from our data, if they occured in-between our weather recording intervals... More about our weather records

Advertising

Lublin weather history for previous 24 hours

 ConditionsComfort  
Time TempWeatherWind HumidityBarometerVisibility
3:00 AM
Fri, Mar 27
48 °FOvercast.2 mph80%29.78 "Hg6 mi
2:00 AM48 °FOvercast.1 mph80%29.79 "Hg6 mi
1:00 AM48 °FClear.3 mph80%29.80 "Hg6 mi
12:00 AM50 °FOvercast.2 mph78%29.80 "Hg6 mi
11:00 PM
Thu, Mar 26
51 °FOvercast.3 mph77%29.80 "Hg6 mi
9:00 PM53 °FOvercast.1 mph70%29.80 "Hg6 mi
8:00 PM54 °FOvercast.1 mph69%29.80 "Hg6 mi
7:00 PM56 °FPassing clouds.1 mph62%29.80 "Hg6 mi
6:00 PM59 °FPassing clouds.1 mph58%29.78 "Hg7 mi
5:00 PM63 °FOvercast.2 mph51%29.77 "Hg14 mi
4:00 PM65 °FOvercast.3 mph48%29.78 "Hg13 mi
3:00 PM65 °FPartly sunny.5 mph50%29.78 "Hg14 mi
2:00 PM64 °FScattered clouds.6 mph49%29.80 "Hg13 mi
1:00 PM63 °FScattered clouds.6 mph52%29.82 "Hg12 mi
12:00 PM60 °FPassing clouds.6 mph58%29.83 "Hg9 mi
11:00 AM56 °FScattered clouds.5 mph68%29.85 "Hg6 mi
10:00 AM51 °FLight rain. Overcast.5 mph77%29.88 "Hg5 mi
9:00 AM51 °FOvercast.5 mph70%29.88 "Hg6 mi
8:00 AM49 °FLight rain. Overcast.5 mph72%29.89 "Hg6 mi
7:00 AM47 °FFog.3 mph71%29.88 "Hg6 mi
6:00 AM47 °FOvercast.5 mph70%29.88 "Hg6 mi
5:00 AM46 °FOvercast.3 mph72%29.89 "Hg6 mi
4:00 AM46 °FOvercast.1 mph73%29.88 "Hg6 mi
Weather by CustomWeather, © 2015

See weather overviewHow to use our weather pages